EW9318 Weather Reports


Display with metric or nautical units.
time (UTC)temp
F
wind
direction
speed
MPH
gust
MPH
rain 1hr
in
rain 24hr
in
rain mn
in
humidity
%
barometer
mb
20260902231016 87 0.0 1.0 0.00 0.05 0.01 71 1010.5
20260902230517 87 269 0.0 1.0 0.00 0.05 0.01 72 1010.6
20260902230016 87 0.0 1.0 0.00 0.05 0.01 71 1010.6
20260902225536 87 269 0.0 2.0 0.00 0.05 0.01 70 1010.6
20260902225016 87 269 0.0 2.0 0.00 0.05 0.01 70 1010.6
20260902224517 87 268 0.0 3.0 0.00 0.05 0.01 67 1010.6
20260902224017 87 263 1.0 3.0 0.00 0.05 0.01 68 1010.7
20260902223516 87 258 1.0 4.0 0.00 0.05 0.01 67 1010.7
20260902223016 87 263 1.0 4.0 0.00 0.05 0.01 66 1010.8
20260902222537 87 255 2.0 4.0 0.00 0.05 0.01 66 1010.8
20260902222016 88 249 2.0 4.0 0.00 0.05 0.01 65 1010.8
20260902221516 88 245 2.0 5.0 0.00 0.05 0.01 65 1010.7
20260902221016 88 245 2.0 5.0 0.00 0.05 0.01 64 1010.7
20260902220516 88 239 3.0 9.0 0.00 0.05 0.01 63 1010.7
20260902220017 88 248 4.0 10.0 0.00 0.05 0.01 63 1010.7
20260902215516 89 246 5.0 10.0 0.00 0.05 0.01 62 1010.7
20260902215016 89 236 3.0 12.0 0.00 0.05 0.01 62 1010.7
20260902214516 89 243 7.0 13.0 0.00 0.05 0.01 61 1010.7
20260902214016 89 227 7.0 13.0 0.00 0.05 0.01 59 1010.7
20260902213516 90 229 5.0 16.0 0.00 0.05 0.01 59 1010.6
20260902213016 90 229 8.0 16.0 0.00 0.05 0.01 58 1010.6
20260902212516 90 223 6.0 13.0 0.00 0.05 0.01 60 1010.7
20260902212017 90 225 7.0 13.0 0.00 0.06 0.01 59 1010.7
20260902211517 90 223 5.0 11.0 0.00 0.06 0.01 60 1010.7
20260902211016 90 221 4.0 11.0 0.00 0.06 0.01 60 1010.6
20260902210516 90 244 6.0 11.0 0.00 0.06 0.01 57 1010.7
20260902210016 90 222 6.0 16.0 0.00 0.06 0.01 59 1010.8
20260902205517 90 234 9.0 16.0 0.00 0.06 0.01 57 1010.8
20260902205016 90 231 9.0 19.0 0.00 0.06 0.01 55 1010.8
20260902204516 90 228 10.0 20.0 0.00 0.06 0.01 56 1011.0
20260902204016 91 234 9.0 20.0 0.00 0.06 0.01 58 1010.9
20260902203516 91 218 6.0 12.0 0.00 0.06 0.01 59 1010.8
20260902203016 90 208 7.0 12.0 0.00 0.06 0.01 58 1010.9
20260902202516 90 211 6.0 12.0 0.00 0.06 0.01 58 1010.9
20260902202016 90 214 7.0 17.0 0.00 0.06 0.01 58 1011.0
20260902201515 90 232 7.0 17.0 0.00 0.06 0.01 59 1011.1
20260902201016 90 233 5.0 12.0 0.00 0.06 0.01 58 1011.2
20260902200515 90 219 6.0 20.0 0.00 0.06 0.01 57 1011.2
20260902200017 90 229 8.0 20.0 0.00 0.06 0.01 55 1011.2
20260902195516 90 224 5.0 12.0 0.00 0.06 0.01 57 1011.3
20260902195035 90 215 7.0 15.0 0.00 0.06 0.01 59 1011.3
20260902194515 90 225 7.0 15.0 0.00 0.06 0.01 58 1011.4
20260902194017 90 209 6.0 12.0 0.00 0.06 0.01 57 1011.4
20260902193516 90 213 6.0 21.0 0.00 0.06 0.01 59 1011.5
20260902193017 90 187 9.0 21.0 0.00 0.06 0.01 57 1011.4
20260902192515 90 186 7.0 17.0 0.00 0.06 0.01 58 1011.6
20260902192015 90 215 7.0 13.0 0.00 0.06 0.01 59 1011.7
20260902191515 90 198 7.0 13.0 0.00 0.06 0.01 58 1011.8
20260902191016 90 195 7.0 13.0 0.00 0.06 0.01 59 1011.9
20260902190516 90 201 6.0 12.0 0.00 0.06 0.01 61 1012.1
20260902190035 90 213 5.0 13.0 0.00 0.06 0.01 61 1012.1
20260902185515 89 224 7.0 13.0 0.00 0.06 0.01 61 1012.3
20260902185016 89 212 7.0 14.0 0.00 0.06 0.01 61 1012.3
20260902184515 89 191 6.0 14.0 0.00 0.06 0.01 62 1012.3
20260902184016 89 245 6.0 12.0 0.00 0.06 0.01 60 1012.4
20260902183516 89 217 8.0 14.0 0.00 0.06 0.01 61 1012.5
20260902183035 89 231 7.0 15.0 0.00 0.06 0.01 61 1012.5
20260902182515 89 230 9.0 15.0 0.00 0.06 0.01 61 1012.6
20260902182015 89 233 6.0 16.0 0.00 0.06 0.01 64 1012.6
20260902181515 88 232 7.0 16.0 0.00 0.06 0.01 63 1012.7
20260902181036 88 248 6.0 12.0 0.00 0.06 0.01 61 1012.6
20260902180515 88 240 8.0 12.0 0.00 0.06 0.01 62 1012.7
20260902180036 88 237 5.0 10.0 0.00 0.06 0.01 66 1012.7
20260902175516 87 267 4.0 13.0 0.00 0.06 0.01 64 1012.7
20260902175015 87 248 9.0 13.0 0.00 0.06 0.01 64 1012.8
20260902174515 87 230 4.0 11.0 0.00 0.06 0.01 66 1012.9
20260902174035 87 219 7.0 11.0 0.00 0.06 0.01 65 1012.9
20260902173515 87 238 3.0 9.0 0.00 0.06 0.01 68 1012.9
20260902173036 86 263 5.0 10.0 0.00 0.06 0.01 67 1012.9
20260902172515 87 239 5.0 11.0 0.00 0.06 0.01 67 1013.0
20260902172015 86 208 6.0 11.0 0.00 0.06 0.01 66 1013.0
20260902171516 86 199 4.0 10.0 0.00 0.06 0.01 69 1013.0
20260902171015 86 202 3.0 9.0 0.00 0.06 0.01 70 1013.1
20260902170515 85 199 5.0 9.0 0.00 0.06 0.01 71 1013.1
20260902170015 85 205 4.0 9.0 0.00 0.06 0.01 72 1013.0
20260902165516 85 226 5.0 8.0 0.00 0.06 0.01 72 1013.0
20260902165015 85 208 3.0 10.0 0.00 0.06 0.01 71 1013.0
20260902164515 85 181 6.0 10.0 0.00 0.06 0.01 71 1013.1
20260902164015 85 203 5.0 10.0 0.00 0.06 0.01 73 1013.1
20260902163515 84 225 4.0 8.0 0.00 0.06 0.01 73 1013.0
20260902163015 84 213 4.0 12.0 0.00 0.06 0.01 72 1013.0
20260902162515 84 177 5.0 12.0 0.00 0.06 0.01 73 1012.9
20260902162015 84 196 5.0 10.0 0.00 0.06 0.01 74 1012.9
20260902161516 84 188 5.0 10.0 0.00 0.06 0.01 73 1013.0
20260902161015 83 198 5.0 8.0 0.00 0.06 0.01 74 1013.0
20260902160535 83 222 3.0 7.0 0.00 0.06 0.01 76 1013.0
20260902160015 83 224 4.0 7.0 0.00 0.06 0.01 76 1013.1
20260902155516 83 223 3.0 7.0 0.00 0.06 0.01 76 1013.1
20260902155015 83 206 2.0 7.0 0.00 0.06 0.01 76 1013.1
20260902154515 82 244 4.0 7.0 0.00 0.06 0.01 76 1013.2
20260902154036 82 225 2.0 9.0 0.00 0.06 0.01 79 1013.2
20260902153516 81 228 4.0 9.0 0.00 0.06 0.01 77 1013.2
20260902153015 81 244 4.0 8.0 0.00 0.06 0.01 79 1013.2
20260902152515 81 251 3.0 8.0 0.00 0.06 0.01 78 1013.1
20260902152015 81 246 4.0 8.0 0.00 0.06 0.01 79 1013.3
20260902151516 81 228 4.0 9.0 0.00 0.06 0.01 79 1013.2
20260902151015 80 251 4.0 9.0 0.00 0.06 0.01 80 1013.2
20260902150515 80 236 5.0 9.0 0.00 0.06 0.01 81 1013.3
20260902150015 80 247 5.0 11.0 0.00 0.06 0.01 82 1013.3
20260902145515 80 262 5.0 13.0 0.00 0.06 0.01 80 1013.2
20260902145015 80 281 6.0 13.0 0.00 0.06 0.01 81 1013.2
20260902144516 79 270 5.0 9.0 0.00 0.06 0.01 82 1013.2
20260902144015 79 264 4.0 11.0 0.00 0.06 0.01 83 1013.2
20260902143515 79 272 5.0 12.0 0.00 0.06 0.01 83 1013.2
20260902143015 78 253 7.0 12.0 0.00 0.06 0.01 85 1013.3
20260902142535 78 254 6.0 11.0 0.00 0.06 0.01 86 1013.3
20260902142015 77 252 5.0 10.0 0.00 0.06 0.01 88 1013.3
20260902141515 77 270 6.0 12.0 0.00 0.06 0.01 91 1013.5
20260902141017 76 269 6.0 12.0 0.00 0.06 0.01 93 1013.5
20260902140517 76 265 2.0 7.0 0.00 0.06 0.01 94 1013.4
20260902140017 76 192 1.0 5.0 0.00 0.06 0.01 95 1012.8
20260902135517 76 192 1.0 5.0 0.00 0.06 0.01 96 1012.8
20260902135018 75 204 2.0 5.0 0.00 0.06 0.01 96 1012.9
20260902134515 75 197 1.0 4.0 0.00 0.06 0.01 96 1012.9
20260902134018 74 207 1.0 4.0 0.00 0.06 0.01 96 1012.8
20260902133517 74 189 2.0 4.0 0.00 0.06 0.01 96 1012.8
20260902133017 74 197 2.0 3.0 0.00 0.06 0.01 96 1012.9
20260902132517 74 157 0.0 3.0 0.00 0.06 0.01 97 1012.9
20260902132017 74 155 1.0 3.0 0.00 0.06 0.01 97 1012.9
20260902131517 74 173 0.0 2.0 0.00 0.06 0.01 97 1012.9
20260902131017 73 196 0.0 3.0 0.00 0.06 0.01 96 1013.0
20260902130517 73 181 1.0 3.0 0.00 0.06 0.01 97 1013.1
20260902130038 73 209 0.0 2.0 0.00 0.06 0.01 96 1013.1
20260902125517 72 183 0.0 2.0 0.00 0.06 0.01 97 1013.1
20260902125018 72 127 0.0 4.0 0.00 0.06 0.01 96 1013.1
20260902124517 71 191 1.0 4.0 0.01 0.06 0.01 97 1013.3
20260902124017 71 55 1.0 4.0 0.01 0.06 0.01 96 1013.3
20260902123517 71 48 0.0 2.0 0.01 0.06 0.01 96 1013.2
20260902123017 71 13 0.0 2.0 0.01 0.06 0.01 96 1013.4
20260902122518 70 13 0.0 2.0 0.01 0.06 0.01 96 1013.6
20260902122017 70 13 1.0 2.0 0.01 0.06 0.01 96 1013.5
20260902121517 70 13 0.0 3.0 0.01 0.06 0.01 96 1013.6
20260902121037 70 25 1.0 3.0 0.01 0.06 0.01 96 1013.5
20260902120517 70 0.0 0.0 0.01 0.06 0.01 96 1013.4
20260902120057 70 0.0 1.0 0.01 0.06 0.01 96 1013.3
20260902115518 69 37 0.0 2.0 0.01 0.06 0.01 96 1013.3
20260902115017 69 40 1.0 2.0 0.01 0.06 0.01 96 1013.3
20260902114517 69 102 1.0 2.0 0.00 0.05 0.00 96 1013.2
20260902114038 69 113 0.0 2.0 0.00 0.05 0.00 96 1013.0
20260902113517 69 113 0.0 2.0 0.00 0.05 0.00 96 1013.0
20260902113017 69 114 0.0 2.0 0.00 0.05 0.00 96 1013.1
20260902112518 69 113 1.0 2.0 0.00 0.05 0.00 96 1013.2
20260902112037 69 62 0.0 3.0 0.00 0.05 0.00 96 1013.2
20260902111517 69 19 1.0 3.0 0.00 0.05 0.00 96 1013.2
20260902111022 69 5 0.0 3.0 0.00 0.05 0.00 96 1013.2
20260902110516 69 14 2.0 3.0 0.00 0.05 0.00 96 1013.1
20260902110037 69 117 0.0 2.0 0.00 0.05 0.00 96 1013.0
20260902105516 69 120 0.0 2.0 0.00 0.05 0.00 96 1012.9
20260902105017 69 131 0.0 2.0 0.00 0.05 0.00 96 1012.9
20260902104557 69 130 1.0 2.0 0.00 0.05 0.00 96 1012.9
20260902104017 69 129 1.0 2.0 0.00 0.05 0.00 96 1012.9
20260902103517 69 129 0.0 2.0 0.00 0.05 0.00 96 1013.0
20260902103018 69 129 0.0 2.0 0.00 0.05 0.00 96 1013.0
20260902102517 69 126 0.0 2.0 0.00 0.05 0.00 95 1012.9
20260902102037 70 120 0.0 2.0 0.00 0.05 0.00 96 1013.1
20260902101537 70 123 0.0 2.0 0.00 0.05 0.00 96 1013.1
20260902101017 70 138 0.0 2.0 0.00 0.05 0.00 96 1013.0
20260902100516 70 113 0.0 4.0 0.00 0.05 0.00 96 1013.0
20260902100017 70 9 2.0 4.0 0.00 0.05 0.00 96 1013.1
20260902095516 70 9 0.0 1.0 0.00 0.05 0.00 95 1013.1
20260902095016 70 0.0 0.0 0.00 0.05 0.00 95 1013.0
20260902094517 70 0.0 0.0 0.00 0.05 0.00 95 1013.0
20260902094016 71 0.0 0.0 0.00 0.05 0.00 95 1013.0
20260902093516 71 0.0 0.0 0.00 0.05 0.00 96 1013.0
20260902093036 71 0.0 0.0 0.00 0.05 0.00 95 1012.9
20260902092517 71 0.0 0.0 0.00 0.05 0.00 95 1012.9
20260902092038 71 0.0 0.0 0.00 0.05 0.00 96 1013.0
20260902091516 71 0.0 0.0 0.00 0.05 0.00 96 1013.0
20260902091016 71 0.0 0.0 0.00 0.05 0.00 96 1013.0
20260902090516 71 0.0 0.0 0.00 0.05 0.00 96 1012.9
20260902090036 71 0.0 0.0 0.00 0.05 0.00 96 1012.8
20260902085517 71 0.0 1.0 0.00 0.05 0.00 95 1012.8
20260902085018 72 96 0.0 2.0 0.00 0.05 0.00 95 1012.7
20260902084517 72 96 0.0 2.0 0.00 0.05 0.00 95 1012.8
20260902084016 72 46 0.0 1.0 0.00 0.05 0.00 96 1012.8
20260902083516 72 47 0.0 2.0 0.00 0.05 0.00 96 1012.7
20260902083017 72 49 0.0 2.0 0.00 0.05 0.00 96 1012.7
20260902082516 72 48 1.0 2.0 0.00 0.05 0.00 96 1012.6
20260902082016 72 60 0.0 2.0 0.00 0.05 0.00 95 1012.6
20260902081516 72 111 0.0 2.0 0.00 0.05 0.00 95 1012.5
20260902081016 72 115 1.0 2.0 0.00 0.05 0.00 95 1012.5
20260902080536 72 149 0.0 4.0 0.00 0.05 0.00 95 1012.6
20260902080016 72 167 1.0 4.0 0.00 0.05 0.00 95 1012.6
20260902075516 72 176 0.0 4.0 0.00 0.05 0.00 95 1012.7
20260902075017 72 14 1.0 3.0 0.00 0.05 0.00 95 1012.8
20260902074516 73 0.0 1.0 0.00 0.05 0.00 95 1012.8
20260902074036 73 318 0.0 1.0 0.00 0.05 0.00 95 1012.8
20260902073516 73 0.0 0.0 0.00 0.05 0.00 95 1012.9
20260902073016 73 0.0 0.0 0.00 0.05 0.00 95 1012.9
20260902072517 73 0.0 0.0 0.00 0.05 0.00 95 1012.7
20260902072016 74 0.0 0.0 0.00 0.05 0.00 95 1012.7
20260902071516 74 0.0 1.0 0.00 0.05 0.00 95 1012.7
20260902071016 74 318 0.0 1.0 0.00 0.05 0.00 95 1012.7
20260902070517 74 318 0.0 1.0 0.00 0.05 0.00 95 1012.6
20260902070037 74 326 0.0 2.0 0.00 0.05 0.00 95 1012.6
20260902065516 74 325 1.0 2.0 0.00 0.05 0.00 96 1012.7
20260902065016 74 342 1.0 3.0 0.00 0.05 0.00 95 1012.8
20260902064517 74 323 1.0 3.0 0.00 0.05 0.00 95 1012.8
20260902064016 75 306 1.0 3.0 0.00 0.05 0.00 96 1012.7
20260902063516 75 289 1.0 4.0 0.00 0.05 0.00 96 1012.7
20260902063017 75 279 2.0 4.0 0.00 0.05 0.00 96 1012.6
20260902062516 75 273 1.0 4.0 0.00 0.05 0.00 96 1012.6
20260902062016 75 288 1.0 3.0 0.00 0.05 0.00 96 1012.5
20260902061517 75 282 1.0 4.0 0.00 0.05 0.00 96 1012.5
20260902061017 74 281 1.0 4.0 0.00 0.05 0.00 96 1012.6
20260902060516 74 259 0.0 2.0 0.00 0.05 0.00 96 1012.5
20260902060016 74 167 0.0 1.0 0.00 0.05 0.00 96 1012.5
20260902055556 74 173 0.0 1.0 0.00 0.05 0.00 96 1012.5
20260902055016 74 290 0.0 1.0 0.00 0.05 0.00 96 1012.4
20260902054516 74 339 0.0 1.0 0.00 0.05 0.00 96 1012.5
20260902054017 74 0.0 0.0 0.00 0.05 0.00 96 1012.5
20260902053516 74 0.0 1.0 0.00 0.05 0.00 95 1012.5
20260902053016 74 339 0.0 1.0 0.00 0.05 0.00 95 1012.5
20260902052516 74 339 0.0 3.0 0.00 0.05 0.00 95 1012.5
20260902052016 74 342 1.0 3.0 0.00 0.05 0.00 95 1012.5
20260902051517 74 358 0.0 3.0 0.00 0.05 0.00 96 1012.5
20260902051016 74 102 0.0 2.0 0.00 0.05 0.00 96 1012.5
20260902050516 74 110 0.0 3.0 0.00 0.05 0.00 96 1012.5
20260902050016 74 137 1.0 3.0 0.00 0.05 0.00 95 1012.5
20260902045517 74 139 0.0 2.0 0.01 0.05 0.00 95 1012.6
20260902045016 74 355 1.0 2.0 0.01 0.05 0.00 95 1012.7
20260902044516 73 0.0 0.0 0.01 0.05 0.00 95 1012.7
20260902044036 73 0.0 2.0 0.01 0.05 0.00 95 1012.7
20260902043536 73 189 0.0 2.0 0.01 0.05 0.00 95 1012.7
20260902043016 73 0.0 0.0 0.01 0.05 0.00 95 1012.8
20260902042516 73 0.0 1.0 0.01 0.05 0.00 95 1012.9
20260902042016 73 106 0.0 2.0 0.01 0.05 0.00 95 1012.8
20260902041557 73 105 1.0 2.0 0.01 0.05 0.00 95 1012.8
20260902041016 73 105 1.0 3.0 0.01 0.05 0.00 95 1012.6
20260902040516 74 105 1.0 3.0 0.01 0.05 0.00 95 1012.7
20260902040016 74 104 0.0 2.0 0.01 0.05 0.05 95 1012.7
20260902035516 74 0.0 0.0 0.00 0.04 0.04 95 1012.7
20260902035018 74 0.0 1.0 0.00 0.04 0.04 95 1012.7
20260902034517 74 104 0.0 1.0 0.00 0.04 0.04 95 1012.8
20260902034016 74 104 0.0 1.0 0.00 0.04 0.04 95 1012.7
20260902033516 74 0.0 0.0 0.00 0.04 0.04 95 1012.6
20260902033016 74 0.0 0.0 0.00 0.04 0.04 95 1012.5
20260902032516 74 0.0 0.0 0.00 0.04 0.04 95 1012.6
20260902032016 74 0.0 1.0 0.00 0.04 0.04 95 1012.6
20260902031516 74 104 0.0 1.0 0.00 0.04 0.04 95 1012.6
20260902031016 74 104 0.0 1.0 0.00 0.04 0.04 95 1012.6
20260902030516 74 103 0.0 1.0 0.00 0.04 0.04 94 1012.7
20260902030037 74 103 0.0 1.0 0.00 0.04 0.04 94 1012.6
20260902025516 74 103 0.0 1.0 0.00 0.04 0.04 94 1012.7
20260902025016 75 104 0.0 1.0 0.00 0.04 0.04 95 1012.7
20260902024516 75 0.0 1.0 0.00 0.04 0.04 95 1012.7
20260902024037 75 104 0.0 1.0 0.00 0.04 0.04 95 1012.7
20260902023516 75 0.0 2.0 0.00 0.04 0.04 94 1012.7
20260902023017 75 104 0.0 2.0 0.00 0.04 0.04 94 1012.7
20260902022516 75 127 1.0 2.0 0.00 0.04 0.04 94 1012.6
20260902022016 75 129 0.0 2.0 0.00 0.04 0.04 94 1012.6
20260902021516 75 133 0.0 3.0 0.00 0.04 0.04 94 1012.6
20260902021016 75 119 1.0 3.0 0.00 0.04 0.04 94 1012.6
20260902020516 75 119 1.0 3.0 0.00 0.04 0.04 94 1012.7
20260902020016 76 106 1.0 3.0 0.01 0.04 0.04 94 1012.6
20260902015557 76 30 0.0 1.0 0.01 0.04 0.04 94 1012.6
20260902015017 76 0.0 3.0 0.01 0.04 0.04 94 1012.6
20260902014517 76 31 0.0 4.0 0.01 0.04 0.04 94 1012.6
20260902014016 76 26 2.0 4.0 0.01 0.04 0.04 94 1012.5
20260902013536 76 360 1.0 3.0 0.01 0.04 0.04 94 1012.5
20260902013016 76 360 1.0 3.0 0.01 0.04 0.04 94 1012.4
20260902012517 76 348 0.0 2.0 0.01 0.04 0.04 94 1012.3
20260902012016 76 0.0 0.0 0.01 0.04 0.04 94 1012.1
20260902011516 76 0.0 2.0 0.01 0.04 0.04 94 1011.9
20260902011016 76 182 0.0 6.0 0.01 0.04 0.04 94 1011.9
20260902010516 76 176 2.0 6.0 0.01 0.04 0.04 94 1011.7
20260902010016 76 177 2.0 6.0 0.01 0.03 0.03 94 1011.7
20260902005556 76 186 3.0 7.0 0.01 0.03 0.03 94 1011.6
20260902005016 76 169 4.0 7.0 0.01 0.03 0.03 94 1011.5
20260902004516 77 160 4.0 7.0 0.01 0.03 0.03 94 1011.5
20260902004016 77 162 4.0 7.0 0.01 0.03 0.03 93 1011.6
20260902003516 77 140 1.0 3.0 0.01 0.03 0.03 93 1011.8
20260902003016 77 134 2.0 3.0 0.01 0.03 0.03 93 1011.9
20260902002536 77 132 0.0 3.0 0.01 0.03 0.03 93 1012.2
20260902002017 77 0.0 1.0 0.01 0.03 0.03 93 1012.4
20260902001516 77 18 0.0 1.0 0.02 0.03 0.03 93 1012.5
20260902001016 77 18 0.0 3.0 0.02 0.03 0.03 93 1012.5
20260902000536 77 17 0.0 4.0 0.02 0.03 0.03 93 1012.4
20260902000016 77 27 2.0 4.0 0.01 0.02 0.02 93 1012.3
20260901235516 78 88 2.0 8.0 0.01 0.02 0.02 93 1012.3
20260901235016 78 121 3.0 9.0 0.01 0.02 0.02 92 1012.3
20260901234536 78 119 6.0 9.0 0.01 0.02 0.02 92 1012.1
20260901234016 78 105 1.0 4.0 0.01 0.02 0.02 92 1012.8
20260901233517 78 0.0 3.0 0.01 0.02 0.02 92 1013.0
20260901233016 78 331 1.0 4.0 0.01 0.02 0.02 92 1013.1
20260901232517 78 355 2.0 4.0 0.01 0.02 0.02 92 1013.1
20260901232016 78 351 0.0 3.0 0.01 0.02 0.02 91 1013.0
20260901231516 78 0.0 2.0 0.00 0.01 0.01 92 1012.9